Weather in Hof

Germany     50°18′59″N   11°54′07″E
temp.,
°C
wind,
m/s
gust,
m/s
humid.,
%
clouds,
%
prec.,
mm/h
press.,
hPa
HPBL,
m
24 july, sat
sat2423:00+15ene22920 0.0 101520
02:00+14ese22911 0.0 101415
05:00+13se229221 0.0 101327
08:00+18se24775 0.0 1012173
11:00+23sse3555100 0.0 1012937
14:00+25sse2346100 0.0 10111759
17:00+24ese4651100 0.0 1011935
20:00+20se277499 0.0 1010144
25 july, sun
sun2523:00+18s2277100 0.0 101123
02:00+16se2494100 0.4 101187
05:00+15wsw2392100 0.0 101160
08:00+17ese118697 0.0 1012184
11:00+23sse126224 0.1 10111132
14:00+22wsw227796 3.4 1011581
17:00+19nw248897 5.3 1012253
20:00+19ese1189100 6.7 101112
26 july, mon
mon2623:00+15wsw229464 0.0 101219
02:00+14wsw119436 0.6 101311
05:00+14ssw1191100 0.6 101310
08:00+17sw128497 0.6 1013125
11:00+22wsw346179 0.0 1013971
14:00+22wsw4562100 0.0 10131168
17:00+20sw3574100 0.0 1014705
20:00+19sw238584 0.1 101374
27 july, tue
tue2723:00+15ssw229497 1.3 101520
02:00+15ssw22950 1.3 101516
05:00+14ssw22953 0.0 101518
08:00+17ssw239092 0.0 1016199
11:00+21ssw247022 0.1 10151027
14:00+23sw3462100 0.6 10141377
17:00+21sw3373100 1.0 1014895
20:00+16w3893100 4.6 1015262
28 july, wed
wed2823:00+14sw239599 0.1 101646
02:00+12ssw23960 0.1 101549
05:00+12s22975 0.0 101437
08:00+15s249144 0.0 1014211
11:00+20sw466566 0.0 1013996
14:00+19sw597199 0.1 1014987
17:00+20wsw58689 0.0 10141007
20:00+17wsw48821 0.0 1015631